Weather in Colorado Springs

United States     38°51′01″N   104°46′38″W
В апреле 2022 года жителям России запретили посещать сайт meteo.paraplan.net по решению Генеральной прокуратуры. Аудитория сайта уменьшилась в 10 раз. Владельцы сайта не видят смысла в поддержке погодного сервера в таких условиях. Сайт будет закрыт в октябре.
temp.,
°C
wind,
m/s
gust,
m/s
humid.,
%
clouds,
%
prec.,
mm/h
press.,
hPa
HPBL,
m
4 october, tue
tue400:00+12n576953 0.0 1020361
03:00+11nnw227012 0.1 101946
06:00+10nnw11764 0.3 102049
09:00+13ssw11585 0.0 1020385
12:00+17se334212 0.3 10171587
15:00+19sse433598 0.3 10142032
18:00+18se453996 0.3 10151006
21:00+14n4558100 0.6 1019513
5 october, wed
wed500:00+11wnw5576100 4.8 1021230
03:00+11wnw4671100 2.5 1021213
06:00+11wnw3467100 3.6 1021154
09:00+13nw225879 0.4 1022371
12:00+15ese225230 0.6 10221222
15:00+16s334846 1.3 10201390
18:00+15sse234985 1.3 1020450
21:00+14ssw235652 0.0 1022295
6 october, thu
thu600:00+11wsw11678 0.1 102470
03:00+10wsw11694 0.0 102361
06:00+9nw22660 0.0 102430
09:00+13e10490 0.0 1025276
12:00+17sse32385 0.0 10231887
15:00+20sse433041 0.0 10202437
18:00+17sse563567 0.0 1021992
21:00+14ssw234318 0.0 1024167
7 october, fri
fri700:00+12s125254 0.0 1025103
03:00+10ssw11665 0.0 102569
06:00+10ssw12669 0.0 102567
09:00+11sse34630 0.0 1026355
12:00+16sse54460 0.0 1022780
15:00+19se433656 0.0 10191135
18:00+17e114282 0.1 1019347
21:00+14n225199 0.2 102183
8 october, sat
sat800:00+13nnw46525 0.3 1023180
03:00+12nw34545 0.0 102275
06:00+10w11607 0.0 102328
09:00+12ese11538 0.0 1024289
12:00+16se324329 0.0 1022940
15:00+19se433411 0.0 10181589
18:00+17s343819 0.0 1018477
21:00+14ssw345247 0.1 1020174